Weather History for Detroit Lakes, MN

Change the Weather History Date:

Saturday, August 17, 2013

  Actual Average Record
Temperature  
Mean Temperature 70 °F -  
Max Temperature 80 °F 80 °F 101 °F (1988)
Min Temperature 59 °F 54 °F 39 °F (1963)
Cooling Degree Days 4    
Growing Degree Days 20 (Base 50)    
Moisture  
Dew Point 60 °F    
Average Humidity 71    
Maximum Humidity 94    
Minimum Humidity 48    
Precipitation  
Precipitation 0.00 in - - ()
Sea Level Pressure  
Sea Level Pressure 30.08 in    
Wind  
Wind Speed 11 mph (South)    
Max Wind Speed 18 mph    
Max Gust Speed 25 mph    
Visibility 10 miles    
Events      
Averages and records for this station are not official NWS values.
T = Trace of Precipitation, MM = Missing Value Source: NWS Daily Summary

Daily Weather History Graph

Daily Weather History Graph

Search for Another Location

Airport:

Trip Planner

Search our weather history database for the weather conditions in past years. The results will help you decide how hot, cold, wet, or windy it might be!

Date:

Astronomy

Aug. 17, 2013 Rise Set
Actual Time 6:24 AM CDT 8:30 PM CDT
Civil Twilight 5:51 AM CDT 9:02 PM CDT
Nautical Twilight 5:10 AM CDT 9:43 PM CDT
Astronomical Twilight 4:24 AM CDT 10:28 PM CDT
Moon 5:52 PM CDT (8/17) 2:21 AM CDT (8/17)
Length of Visible Light 15h 11m
Length of Day
14h 05m
Waxing Gibbous, 84% of the Moon is Illuminated
Aug 17
Waxing Gibbous
Aug 20
Full
Aug 28
Last Quarter
Sep 5
New
Sep 12
First Quarter

Hourly Weather History & Observations

Time (CDT) Temp. Heat Index Dew Point Humidity Pressure Visibility Wind Dir Wind Speed Gust Speed Precip Events Conditions
12:15 AM 64.4 °F - 57.2 °F 77% 30.14 in 10.0 mi South 8.1 mph - N/A   Clear
12:36 AM 64.4 °F - 57.2 °F 77% 30.14 in 10.0 mi South 8.1 mph - N/A   Clear
12:55 AM 62.6 °F - 57.2 °F 82% 30.14 in 10.0 mi South 6.9 mph - N/A   Clear
1:15 AM 62.6 °F - 57.2 °F 82% 30.14 in 10.0 mi South 9.2 mph - N/A   Clear
1:36 AM 64.4 °F - 59.0 °F 83% 30.13 in 10.0 mi SSW 9.2 mph - N/A   Clear
1:55 AM 64.4 °F - 59.0 °F 83% 30.13 in 10.0 mi SSW 10.4 mph - N/A   Clear
2:15 AM 62.6 °F - 59.0 °F 88% 30.13 in 10.0 mi SSW 9.2 mph - N/A   Clear
2:36 AM 62.6 °F - 59.0 °F 88% 30.13 in 10.0 mi SSW 8.1 mph - N/A   Clear
2:55 AM 62.6 °F - 59.0 °F 88% 30.12 in 10.0 mi SSW 9.2 mph - N/A   Clear
3:15 AM 62.6 °F - 59.0 °F 88% 30.12 in 10.0 mi SSW 8.1 mph - N/A   Clear
3:36 AM 62.6 °F - 59.0 °F 88% 30.12 in 10.0 mi SSW 6.9 mph - N/A   Clear
3:55 AM 62.6 °F - 59.0 °F 88% 30.12 in 10.0 mi SSW 10.4 mph - N/A   Clear
4:15 AM 62.6 °F - 59.0 °F 88% 30.12 in 10.0 mi SSW 9.2 mph - N/A   Clear
4:36 AM 62.6 °F - 59.0 °F 88% 30.12 in 10.0 mi SSW 8.1 mph - N/A   Clear
4:55 AM 62.6 °F - 59.0 °F 88% 30.12 in 10.0 mi South 6.9 mph - N/A   Clear
5:15 AM 60.8 °F - 57.2 °F 88% 30.12 in 10.0 mi SSE 6.9 mph - N/A   Clear
5:36 AM 60.8 °F - 57.2 °F 88% 30.11 in 10.0 mi SSE 6.9 mph - N/A   Clear
5:55 AM 60.8 °F - 57.2 °F 88% 30.12 in 10.0 mi SSE 6.9 mph - N/A   Clear
6:15 AM 60.8 °F - 57.2 °F 88% 30.12 in 10.0 mi SSE 6.9 mph - N/A   Clear
6:35 AM 59.0 °F - 57.2 °F 94% 30.12 in 7.0 mi SSE 6.9 mph - N/A   Scattered Clouds
6:55 AM 60.8 °F - 57.2 °F 88% 30.11 in 10.0 mi South 6.9 mph - N/A   Scattered Clouds
7:15 AM 60.8 °F - 59.0 °F 94% 30.12 in 10.0 mi South 8.1 mph - N/A   Mostly Cloudy
7:35 AM 60.8 °F - 59.0 °F 94% 30.12 in 10.0 mi South 9.2 mph - N/A   Mostly Cloudy
7:55 AM 62.6 °F - 59.0 °F 88% 30.12 in 10.0 mi South 8.1 mph - N/A   Scattered Clouds
8:15 AM 62.6 °F - 59.0 °F 88% 30.12 in 10.0 mi South 9.2 mph - N/A   Scattered Clouds
8:35 AM 64.4 °F - 59.0 °F 83% 30.12 in 10.0 mi South 10.4 mph - N/A   Clear
8:56 AM 66.2 °F - 59.0 °F 78% 30.11 in 10.0 mi South 11.5 mph - N/A   Clear
9:15 AM 68.0 °F - 59.0 °F 73% 30.11 in 10.0 mi South 13.8 mph - N/A   Scattered Clouds
9:35 AM 68.0 °F - 60.8 °F 78% 30.11 in 10.0 mi SSW 15.0 mph - N/A   Scattered Clouds
9:56 AM 69.8 °F - 60.8 °F 73% 30.11 in 10.0 mi SSW 12.7 mph 19.6 mph N/A   Mostly Cloudy
10:15 AM 71.6 °F - 60.8 °F 69% 30.11 in 10.0 mi SSW 13.8 mph 19.6 mph N/A   Mostly Cloudy
10:35 AM 71.6 °F - 60.8 °F 69% 30.11 in 10.0 mi SSW 17.3 mph - N/A   Mostly Cloudy
10:56 AM 71.6 °F - 60.8 °F 69% 30.11 in 10.0 mi SSW 16.1 mph 19.6 mph N/A   Mostly Cloudy
11:15 AM 73.4 °F - 60.8 °F 65% 30.11 in 10.0 mi SSW 18.4 mph 23.0 mph N/A   Mostly Cloudy
11:35 AM 73.4 °F - 60.8 °F 65% 30.10 in 10.0 mi SSW 18.4 mph 25.3 mph N/A   Scattered Clouds
11:56 AM 73.4 °F - 60.8 °F 65% 30.11 in 10.0 mi South 13.8 mph - N/A   Scattered Clouds
12:15 PM 77.0 °F - 60.8 °F 57% 30.11 in 10.0 mi South 17.3 mph 23.0 mph N/A   Scattered Clouds
12:35 PM 77.0 °F - 59.0 °F 54% 30.10 in 10.0 mi South 16.1 mph 21.9 mph N/A   Scattered Clouds
12:56 PM 77.0 °F - 59.0 °F 54% 30.09 in 10.0 mi South 16.1 mph 21.9 mph N/A   Clear
1:15 PM 77.0 °F - 59.0 °F 54% 30.08 in 10.0 mi South 15.0 mph 23.0 mph N/A   Clear
1:35 PM 77.0 °F - 59.0 °F 54% 30.08 in 10.0 mi South 15.0 mph 19.6 mph N/A   Clear
1:56 PM 78.8 °F - 59.0 °F 51% 30.07 in 10.0 mi South 17.3 mph - N/A   Clear
2:15 PM 78.8 °F - 59.0 °F 51% 30.06 in 10.0 mi SSW 15.0 mph 20.7 mph N/A   Clear
2:35 PM 80.6 °F 81.5 °F 60.8 °F 51% 30.06 in 10.0 mi SSW 13.8 mph - N/A   Clear
2:56 PM 78.8 °F - 59.0 °F 51% 30.06 in 10.0 mi SSW 12.7 mph - N/A   Clear
3:15 PM 78.8 °F - 59.0 °F 51% 30.05 in 10.0 mi SSW 16.1 mph - N/A   Clear
3:35 PM 80.6 °F 81.1 °F 59.0 °F 48% 30.05 in 10.0 mi South 15.0 mph - N/A   Clear
3:56 PM 80.6 °F 81.1 °F 59.0 °F 48% 30.05 in 10.0 mi SSW 15.0 mph 21.9 mph N/A   Clear
4:15 PM 80.6 °F 81.1 °F 59.0 °F 48% 30.05 in 10.0 mi SSW 13.8 mph 20.7 mph N/A   Clear
4:35 PM 80.6 °F 81.5 °F 60.8 °F 51% 30.05 in 10.0 mi South 16.1 mph - N/A   Clear
4:56 PM 78.8 °F - 59.0 °F 51% 30.05 in 10.0 mi SSW 13.8 mph - N/A   Clear
5:15 PM 78.8 °F - 59.0 °F 51% 30.05 in 10.0 mi SSW 16.1 mph 20.7 mph N/A   Clear
5:35 PM 78.8 °F - 60.8 °F 54% 30.05 in 10.0 mi SSW 15.0 mph 21.9 mph N/A   Clear
5:56 PM 78.8 °F - 59.0 °F 51% 30.05 in 10.0 mi South 11.5 mph 20.7 mph N/A   Clear
6:15 PM 78.8 °F - 60.8 °F 54% 30.04 in 10.0 mi South 12.7 mph 18.4 mph N/A   Clear
6:35 PM 78.8 °F - 60.8 °F 54% 30.03 in 10.0 mi South 13.8 mph 20.7 mph N/A   Clear
6:56 PM 78.8 °F - 60.8 °F 54% 30.03 in 10.0 mi South 11.5 mph 19.6 mph N/A   Clear
7:15 PM 77.0 °F - 60.8 °F 57% 30.03 in 10.0 mi South 13.8 mph - N/A   Clear
7:35 PM 77.0 °F - 60.8 °F 57% 30.02 in 10.0 mi South 12.7 mph 20.7 mph N/A   Clear
7:56 PM 75.2 °F - 60.8 °F 61% 30.02 in 10.0 mi South 13.8 mph 20.7 mph N/A   Clear
8:15 PM 73.4 °F - 62.6 °F 69% 30.02 in 10.0 mi South 10.4 mph - N/A   Clear
8:35 PM 73.4 °F - 62.6 °F 69% 30.02 in 10.0 mi South 10.4 mph - N/A   Clear
8:55 PM 73.4 °F - 62.6 °F 69% 30.02 in 10.0 mi South 10.4 mph - N/A   Clear
9:15 PM 71.6 °F - 62.6 °F 73% 30.02 in 10.0 mi South 12.7 mph 17.3 mph N/A   Clear
9:35 PM 71.6 °F - 62.6 °F 73% 30.03 in 10.0 mi South 10.4 mph - N/A   Clear
9:55 PM 71.6 °F - 62.6 °F 73% 30.03 in 10.0 mi South 10.4 mph - N/A   Clear
10:15 PM 71.6 °F - 62.6 °F 73% 30.03 in 10.0 mi South 12.7 mph 16.1 mph N/A   Clear
10:35 PM 71.6 °F - 62.6 °F 73% 30.03 in 10.0 mi SSW 10.4 mph - N/A   Clear
10:55 PM 71.6 °F - 62.6 °F 73% 30.03 in 10.0 mi South 11.5 mph - N/A   Clear
11:15 PM 71.6 °F - 62.6 °F 73% 30.04 in 10.0 mi SSW 11.5 mph 17.3 mph N/A   Clear
11:35 PM 71.6 °F - 62.6 °F 73% 30.04 in 10.0 mi SSW 15.0 mph 18.4 mph N/A   Clear
11:55 PM 71.6 °F - 60.8 °F 69% 30.04 in 10.0 mi SSW 15.0 mph - N/A   Clear